Location: ????????
(55.6333°N, 37.7000°E)
Time: 14:59:24
(UTC+00:00)

IRIDIUM 103 - Pass Details

Date: 19 May 2025
Orbit: 775 x 780 km, 86.4° (Epoch: 20 June)

Event Time Altitude Azimuth Distance (km) Brightness Sun altitude
Exits shadow 22:40:47 17° 180° (S) 1,915 5.8 -12.7°
Maximum altitude 22:44:56 84° 93° (E) 793 4.4 -12.5°
Drops below altitude 10° 22:50:12 10° 6° (N) 2,347 8.2 -12.3°
Sets 22:52:33 0° 6° (N) 3,278 9.3 -12.2°
